Location: Yellowknife
(62.4500°N, 114.3500°W)
Time: 00:04:24
(UTC-06:00)

Amateur Radio Satellites - All Passes

Search period start: 20 September 2014 23:34
Search period end: 21 September 2014 23:34
Location: Yellowknife, 62.4500°N, 114.3500°W

Satellite Date Start Highest point End Downlink Frequencies (MHz)
Time Altitude Azimuth
OPAL 20 Sep 23:35:38 23:37:53 13° 352° (N) 23:40:09 ?
Oscar 10/S400 20 Sep 23:43:45 00:17:50 29° 193° (SSW) 03:59:37 145.825 - 145.975 CW/USB, Beacon 145.810 USB
SO-50 20 Sep 23:49:42 23:53:41 30° 129° (SE) 23:57:46 436.795 FM
STRAND 1 21 Sep 00:19:30 00:22:14 15° 332° (NNW) 00:24:58 ?
HO-68 21 Sep 00:28:28 00:30:55 12° 291° (WNW) 00:33:22 435.675 MHz FM
FUNcube-1 21 Sep 00:29:33 00:32:41 18° 276° (W) 00:35:52 145.950 - 145.970 MHz USB
KITSAT 1 21 Sep 00:38:11 00:46:18 69° 356° (N) 00:54:24 435.175 FM
Saudisat 1A 21 Sep 00:38:47 00:43:12 67° 212° (SSW) 00:47:35 436.775 MHz
OPAL 21 Sep 01:12:17 01:15:00 14° 16° (NNE) 01:17:43 ?
UOSAT-12 21 Sep 01:20:01 01:23:52 26° 126° (SE) 01:27:46 437.025 FM, 437.400 FM
SO-50 21 Sep 01:29:13 01:33:49 79° 152° (SSE) 01:38:34 436.795 FM
JAS-1B 21 Sep 01:58:51 02:01:38 13° 73° (ENE) 02:04:22 435.800 - 435.900 CW/SSB
ITAMSAT 1 21 Sep 01:59:39 02:00:28 10° 74° (ENE) 02:01:18 435.822 SSB
Uribyol 2 21 Sep 02:02:42 02:04:28 12° 76° (ENE) 02:06:14 436.500 FM
Oscar 19 21 Sep 02:11:13 02:15:14 22° 86° (E) 02:19:13 437.125 CW, 437.150 USB
Saudisat 1A 21 Sep 02:18:43 02:22:13 23° 234° (SW) 02:25:43 436.775 MHz
AO-27 21 Sep 02:33:13 02:36:40 18° 82° (E) 02:40:06 436.795 MHz FM
KITSAT 1 21 Sep 02:34:13 02:42:23 82° 24° (NNE) 02:50:30 435.175 FM
OPAL 21 Sep 02:48:12 02:52:30 27° 40° (NE) 02:56:48 ?
Oscar 16 21 Sep 02:50:01 02:54:52 37° 95° (E) 02:59:40 437.025 USB, Beacon 2401.1428
AO-Echo 21 Sep 02:51:08 02:54:58 23° 89° (E) 02:58:52 ?
UOSAT-12 21 Sep 02:58:47 03:03:29 70° 148° (SSE) 03:08:14 437.025 FM, 437.400 FM
RS-15 21 Sep 03:00:40 03:04:37 13° 87° (E) 03:08:34 29.354 - 29.394 USB, Beacon 29.352 USB
SO-50 21 Sep 03:09:57 03:14:36 68° 356° (N) 03:19:23 436.795 FM
AO-7 21 Sep 03:22:45 03:23:48 10° 64° (ENE) 03:24:52 29.400 - 29.500 MHz
Gurwin Techsat 1B 21 Sep 03:33:58 03:38:23 26° 88° (E) 03:42:46 435.225 FM
STRAND 1 21 Sep 03:34:47 03:36:50 12° 21° (NNE) 03:38:52 ?
ITAMSAT 1 21 Sep 03:36:35 03:41:30 40° 97° (E) 03:46:24 435.822 SSB
Uribyol 2 21 Sep 03:40:22 03:45:23 44° 98° (E) 03:50:22 436.500 FM
JAS-1B 21 Sep 03:48:17 03:54:11 51° 100° (E) 03:59:42 435.800 - 435.900 CW/SSB
Oscar 19 21 Sep 03:50:09 03:55:24 81° 109° (ESE) 04:00:35 437.125 CW, 437.150 USB
TMSAT-1 21 Sep 04:09:52 04:14:42 34° 93° (E) 04:19:30 436.925 FM
AO-27 21 Sep 04:12:01 04:17:14 65° 105° (ESE) 04:22:26 436.795 MHz FM
OPAL 21 Sep 04:25:35 04:30:47 73° 62° (ENE) 04:36:02 ?
Oscar 16 21 Sep 04:29:24 04:34:33 61° 297° (WNW) 04:39:39 437.025 USB, Beacon 2401.1428
AO-Echo 21 Sep 04:29:35 04:34:24 89° 288° (WNW) 04:39:20 ?
KITSAT 1 21 Sep 04:29:47 04:37:37 56° 230° (SW) 04:45:25 435.175 FM
UOSAT-12 21 Sep 04:39:02 04:43:46 70° 352° (N) 04:48:32 437.025 FM, 437.400 FM
SO-50 21 Sep 04:50:45 04:55:29 83° 19° (NNE) 05:00:19 436.795 FM
RS-15 21 Sep 05:03:41 05:13:23 39° 115° (ESE) 05:23:05 29.354 - 29.394 USB, Beacon 29.352 USB
STRAND 1 21 Sep 05:10:26 05:14:35 26° 44° (NE) 05:18:45 ?
AO-7 21 Sep 05:12:20 05:19:44 34° 91° (E) 05:27:04 29.400 - 29.500 MHz
ISS 21 Sep 05:13:39 05:14:49 11° 165° (SSE) 05:15:59 145.800 FM
Gurwin Techsat 1B 21 Sep 05:13:42 05:19:04 89° 291° (WNW) 05:24:24 435.225 FM
ITAMSAT 1 21 Sep 05:16:09 05:21:17 58° 299° (WNW) 05:26:24 435.822 SSB
Uribyol 2 21 Sep 05:19:57 05:25:03 54° 300° (WNW) 05:30:09 436.500 FM
Oscar 19 21 Sep 05:29:51 05:34:24 32° 311° (NW) 05:38:56 437.125 CW, 437.150 USB
JAS-1B 21 Sep 05:39:10 05:45:03 49° 306° (NW) 05:50:29 435.800 - 435.900 CW/SSB
Uosat F 21 Sep 05:40:56 05:45:36 36° 96° (E) 05:50:14 435.120 FM
TMSAT-1 21 Sep 05:49:46 05:55:04 69° 295° (WNW) 06:00:21 436.925 FM
AO-27 21 Sep 05:51:48 05:56:37 39° 307° (NW) 06:01:25 436.795 MHz FM
OPAL 21 Sep 06:05:28 06:10:08 32° 264° (W) 06:14:50 ?
AO-Echo 21 Sep 06:08:49 06:12:47 27° 312° (NW) 06:16:48 ?
Oscar 16 21 Sep 06:09:14 06:13:09 22° 320° (NW) 06:17:03 437.025 USB, Beacon 2401.1428
JAS-2 21 Sep 06:15:00 06:19:31 23° 86° (E) 06:24:25 435.800 - 435.900 CW/SSB, 435.910 FM
UOSAT-12 21 Sep 06:19:30 06:24:16 77° 15° (NNE) 06:29:02 437.025 FM, 437.400 FM
KITSAT 1 21 Sep 06:25:46 06:31:27 22° 255° (WSW) 06:37:08 435.175 FM
SO-50 21 Sep 06:31:24 06:35:56 46° 222° (SW) 06:40:32 436.795 FM
STRAND 1 21 Sep 06:48:08 06:53:14 78° 67° (ENE) 06:58:22 ?
ISS 21 Sep 06:48:52 06:50:32 13° 185° (S) 06:52:12 145.800 FM
Gurwin Techsat 1B 21 Sep 06:54:03 06:58:36 30° 313° (NW) 07:03:08 435.225 FM
ITAMSAT 1 21 Sep 06:56:07 06:59:59 22° 321° (NW) 07:03:51 435.822 SSB
Uribyol 2 21 Sep 06:59:56 07:03:41 20° 323° (NW) 07:07:26 436.500 FM
AO-7 21 Sep 07:05:18 07:13:40 86° 116° (ESE) 07:22:00 29.400 - 29.500 MHz
Oscar 19 21 Sep 07:09:48 07:12:27 14° 334° (NNW) 07:15:06 437.125 CW, 437.150 USB
RS-15 21 Sep 07:13:31 07:24:25 78° 144° (SE) 07:35:26 29.354 - 29.394 USB, Beacon 29.352 USB
Hamsat 21 Sep 07:19:25 07:23:30 40° 97° (E) 07:27:31 145.90 MHz
Uosat F 21 Sep 07:19:45 07:24:43 61° 298° (WNW) 07:29:40 435.120 FM
JAS-1B 21 Sep 07:30:02 07:34:31 21° 333° (NNW) 07:38:43 435.800 - 435.900 CW/SSB
TMSAT-1 21 Sep 07:30:07 07:34:19 24° 318° (NW) 07:38:30 436.925 FM
AO-27 21 Sep 07:31:52 07:35:00 16° 330° (NNW) 07:38:09 436.795 MHz FM
SO-67 21 Sep 07:39:42 07:41:29 13° 85° (E) 07:43:17 435.3500 MHz FM
AO-Echo 21 Sep 07:48:45 07:50:15 11° 335° (NNW) 07:51:45 ?
Oscar 16 21 Sep 07:49:17 07:50:55 11° 344° (NNW) 07:52:33 437.025 USB, Beacon 2401.1428
UOSAT-12 21 Sep 07:59:46 08:04:25 54° 218° (SW) 08:09:01 437.025 FM, 437.400 FM
JAS-2 21 Sep 07:59:48 08:05:32 76° 107° (ESE) 08:11:59 435.800 - 435.900 CW/SSB, 435.910 FM
SO-50 21 Sep 08:12:54 08:15:34 15° 244° (WSW) 08:18:15 436.795 FM
STRAND 1 21 Sep 08:28:35 08:32:59 28° 269° (W) 08:37:25 ?
Gurwin Techsat 1B 21 Sep 08:34:34 08:37:11 14° 336° (NNW) 08:39:48 435.225 FM
ITAMSAT 1 21 Sep 08:36:15 08:37:53 11° 345° (NNW) 08:39:30 435.822 SSB
Uribyol 2 21 Sep 08:40:01 08:41:30 11° 347° (NNW) 08:42:59 436.500 FM
Hamsat 21 Sep 08:55:28 08:59:34 45° 299° (WNW) 09:03:37 145.90 MHz
AO-7 21 Sep 08:58:18 09:06:02 46° 321° (NW) 09:13:45 29.400 - 29.500 MHz
Uosat F 21 Sep 08:59:02 09:02:46 22° 320° (NW) 09:06:31 435.120 FM
TMSAT-1 21 Sep 09:10:38 09:12:42 12° 341° (NNW) 09:14:45 436.925 FM
SO-67 21 Sep 09:11:40 09:15:09 78° 105° (ESE) 09:18:37 435.3500 MHz FM
AO-27 21 Sep 09:12:02 09:12:43 10° 354° (N) 09:13:25 436.795 MHz FM
JAS-1B 21 Sep 09:19:37 09:23:08 15° 0° (N) 09:26:27 435.800 - 435.900 CW/SSB
MaSat-1 21 Sep 09:19:52 09:24:16 32° 119° (ESE) 09:28:26 437.345 MHz
RS-15 21 Sep 09:26:05 09:37:05 80° 355° (N) 09:48:18 29.354 - 29.394 USB, Beacon 29.352 USB
Oscar 16 21 Sep 09:27:43 09:28:17 10° 8° (N) 09:28:51 437.025 USB, Beacon 2401.1428
UOSAT-12 21 Sep 09:40:32 09:43:46 18° 240° (WSW) 09:46:59 437.025 FM, 437.400 FM
JAS-2 21 Sep 09:45:19 09:50:26 37° 308° (NW) 09:56:06 435.800 - 435.900 CW/SSB, 435.910 FM
HO-68 21 Sep 09:48:39 09:54:52 31° 89° (E) 10:01:05 435.675 MHz FM
ITAMSAT 1 21 Sep 10:14:22 10:15:24 11° 9° (N) 10:16:26 435.822 SSB
Gurwin Techsat 1B 21 Sep 10:14:34 10:15:12 10° 1° (N) 10:15:51 435.225 FM
Uribyol 2 21 Sep 10:17:46 10:19:00 11° 11° (N) 10:20:15 436.500 FM
Oscar 19 21 Sep 10:25:02 10:27:18 13° 22° (NNE) 10:29:34 437.125 CW, 437.150 USB
FUNcube-1 21 Sep 10:30:15 10:32:35 14° 79° (E) 10:34:54 145.950 - 145.970 MHz USB
Hamsat 21 Sep 10:32:20 10:34:40 15° 321° (NW) 10:36:58 145.90 MHz
Oscar 11 21 Sep 10:34:49 10:38:18 23° 89° (E) 10:41:45 145.825 FM, Beacon 2401.500 USB
Uosat F 21 Sep 10:38:42 10:40:01 11° 343° (NNW) 10:41:20 435.120 FM
SO-67 21 Sep 10:45:14 10:47:51 20° 306° (NW) 10:50:27 435.3500 MHz FM
AO-27 21 Sep 10:48:18 10:50:17 12° 18° (NNE) 10:52:15 436.795 MHz FM
TMSAT-1 21 Sep 10:49:48 10:50:37 10° 6° (N) 10:51:27 436.925 FM
AO-7 21 Sep 10:50:30 10:57:16 29° 347° (NNW) 11:04:00 29.400 - 29.500 MHz
UKube-1 21 Sep 10:53:16 10:57:16 34° 96° (E) 11:01:15 145.840 MHz, 145.915 MHz
MaSat-1 21 Sep 10:55:47 11:00:45 83° 320° (NW) 11:05:20 437.345 MHz
Oscar 16 21 Sep 11:02:36 11:05:51 17° 32° (NNE) 11:09:06 437.025 USB, Beacon 2401.1428
AO-Echo 21 Sep 11:02:49 11:04:00 11° 24° (NNE) 11:05:10 ?
JAS-1B 21 Sep 11:06:50 11:11:46 21° 28° (NNE) 11:16:14 435.800 - 435.900 CW/SSB
JAS-2 21 Sep 11:30:57 11:34:20 17° 332° (NNW) 11:37:54 435.800 - 435.900 CW/SSB, 435.910 FM
HO-68 21 Sep 11:36:21 11:43:36 85° 113° (ESE) 11:50:49 435.675 MHz FM
RS-15 21 Sep 11:39:01 11:50:01 88° 206° (SSW) 12:01:21 29.354 - 29.394 USB, Beacon 29.352 USB
ITAMSAT 1 21 Sep 11:49:45 11:53:09 18° 33° (NNE) 11:56:34 435.822 SSB
Gurwin Techsat 1B 21 Sep 11:50:30 11:53:15 14° 25° (NNE) 11:56:01 435.225 FM
Uribyol 2 21 Sep 11:53:13 11:56:46 19° 35° (NE) 12:00:20 436.500 FM
Oscar 19 21 Sep 12:00:55 12:05:14 27° 46° (NE) 12:09:34 437.125 CW, 437.150 USB
FUNcube-1 21 Sep 12:05:26 12:10:01 55° 101° (E) 12:14:34 145.950 - 145.970 MHz USB
Sapphire 21 Sep 12:08:54 12:11:40 14° 106° (ESE) 12:14:28 437.095 MHz 1200 baud AX-25 AFSK
Oscar 11 21 Sep 12:10:38 12:15:02 81° 290° (WNW) 12:19:24 145.825 FM, Beacon 2401.500 USB
AO-27 21 Sep 12:24:12 12:28:17 24° 42° (NE) 12:32:23 436.795 MHz FM
TMSAT-1 21 Sep 12:25:30 12:28:42 17° 30° (NNE) 12:31:54 436.925 FM
UKube-1 21 Sep 12:29:26 12:33:43 55° 297° (WNW) 12:37:59 145.840 MHz, 145.915 MHz
MaSat-1 21 Sep 12:33:24 12:37:58 40° 341° (NNW) 12:42:07 437.345 MHz
PCSat 21 Sep 12:34:06 12:38:04 21° 113° (ESE) 12:42:02 145.825 MHz
AO-Echo 21 Sep 12:37:36 12:41:24 25° 47° (NE) 12:45:14 ?
Oscar 16 21 Sep 12:39:16 12:44:08 41° 55° (NE) 12:49:00 437.025 USB, Beacon 2401.1428
AO-7 21 Sep 12:41:16 12:48:03 30° 14° (NNE) 12:54:51 29.400 - 29.500 MHz
JAS-1B 21 Sep 12:54:13 13:01:13 45° 52° (NE) 13:07:12 435.800 - 435.900 CW/SSB
JAS-2 21 Sep 13:15:48 13:17:28 11° 358° (N) 13:19:10 435.800 - 435.900 CW/SSB, 435.910 FM
HO-68 21 Sep 13:24:19 13:30:54 41° 317° (NW) 13:37:29 435.675 MHz FM
ITAMSAT 1 21 Sep 13:26:44 13:31:39 45° 56° (ENE) 13:36:36 435.822 SSB
Gurwin Techsat 1B 21 Sep 13:27:16 13:31:53 31° 49° (NE) 13:36:32 435.225 FM
Uribyol 2 21 Sep 13:30:20 13:35:18 48° 58° (ENE) 13:40:19 436.500 FM
Oscar 19 21 Sep 13:38:51 13:44:04 82° 68° (ENE) 13:49:19 437.125 CW, 437.150 USB
FUNcube-1 21 Sep 13:42:02 13:46:20 38° 303° (WNW) 13:50:37 145.950 - 145.970 MHz USB
Oscar 11 21 Sep 13:47:20 13:50:44 22° 312° (NW) 13:54:07 145.825 FM, Beacon 2401.500 USB
Sapphire 21 Sep 13:48:47 13:53:56 46° 129° (SE) 13:59:07 437.095 MHz 1200 baud AX-25 AFSK
Uosat F 21 Sep 13:50:54 13:53:54 16° 32° (NNE) 13:56:55 435.120 FM
RS-15 21 Sep 13:51:20 14:01:44 51° 235° (SW) 14:12:28 29.354 - 29.394 USB, Beacon 29.352 USB
AO-27 21 Sep 14:01:59 14:07:09 70° 64° (ENE) 14:12:21 436.795 MHz FM
TMSAT-1 21 Sep 14:02:36 14:07:28 39° 53° (NE) 14:12:22 436.925 FM
UKube-1 21 Sep 14:06:20 14:09:11 17° 319° (NW) 14:12:03 145.840 MHz, 145.915 MHz
MaSat-1 21 Sep 14:11:19 14:15:34 34° 5° (N) 14:19:23 437.345 MHz
AO-Echo 21 Sep 14:15:00 14:19:43 85° 69° (ENE) 14:24:29 ?
PCSat 21 Sep 14:15:18 14:20:39 62° 136° (SE) 14:26:02 145.825 MHz
Oscar 16 21 Sep 14:18:16 14:23:25 59° 257° (WSW) 14:28:36 437.025 USB, Beacon 2401.1428
AO-7 21 Sep 14:31:33 14:39:20 48° 41° (NE) 14:47:08 29.400 - 29.500 MHz
JAS-1B 21 Sep 14:44:01 14:51:47 71° 254° (WSW) 14:58:17 435.800 - 435.900 CW/SSB
JAS-2 21 Sep 14:57:36 15:00:33 15° 24° (NNE) 15:03:36 435.800 - 435.900 CW/SSB, 435.910 FM
ITAMSAT 1 21 Sep 15:06:06 15:11:10 53° 258° (WSW) 15:16:17 435.822 SSB
Gurwin Techsat 1B 21 Sep 15:06:09 15:11:29 85° 251° (WSW) 15:16:52 435.225 FM
Uribyol 2 21 Sep 15:09:51 15:14:53 49° 260° (W) 15:19:58 436.500 FM
HO-68 21 Sep 15:11:46 15:17:07 24° 342° (NNW) 15:22:29 435.675 MHz FM
Hamsat 21 Sep 15:16:35 15:17:06 10° 31° (NNE) 15:17:36 145.90 MHz
FUNcube-1 21 Sep 15:19:18 15:21:42 14° 325° (NW) 15:24:06 145.950 - 145.970 MHz USB
Oscar 19 21 Sep 15:19:37 15:24:02 27° 270° (W) 15:28:28 437.125 CW, 437.150 USB
Uosat F 21 Sep 15:27:00 15:31:38 40° 54° (NE) 15:36:19 435.120 FM
Sapphire 21 Sep 15:31:47 15:37:14 76° 332° (NNW) 15:42:42 437.095 MHz 1200 baud AX-25 AFSK
TMSAT-1 21 Sep 15:41:59 15:47:15 65° 256° (WSW) 15:52:34 436.925 FM
AO-27 21 Sep 15:42:27 15:47:07 33° 267° (W) 15:51:49 436.795 MHz FM
MaSat-1 21 Sep 15:48:38 15:53:02 53° 29° (NNE) 15:56:52 437.345 MHz
AO-Echo 21 Sep 15:55:22 15:59:09 24° 271° (W) 16:02:57 ?
PCSat 21 Sep 15:58:47 16:04:12 65° 340° (NNW) 16:09:38 145.825 MHz
Oscar 16 21 Sep 16:00:44 16:03:54 16° 279° (W) 16:07:05 437.025 USB, Beacon 2401.1428
RS-15 21 Sep 16:04:15 16:11:23 20° 263° (W) 16:18:41 29.354 - 29.394 USB, Beacon 29.352 USB
AO-7 21 Sep 16:23:27 16:31:48 82° 246° (WSW) 16:40:10 29.400 - 29.500 MHz
JAS-1B 21 Sep 16:37:41 16:43:32 23° 276° (W) 16:48:44 435.800 - 435.900 CW/SSB
JAS-2 21 Sep 16:39:40 16:44:18 34° 50° (NE) 16:49:10 435.800 - 435.900 CW/SSB, 435.910 FM
Gurwin Techsat 1B 21 Sep 16:48:02 16:52:15 24° 273° (W) 16:56:30 435.225 FM
Hamsat 21 Sep 16:48:11 16:51:52 27° 53° (NE) 16:55:32 145.90 MHz
ITAMSAT 1 21 Sep 16:49:10 16:51:55 14° 281° (W) 16:54:41 435.822 SSB
Uribyol 2 21 Sep 16:53:19 16:55:42 13° 283° (WNW) 16:58:05 436.500 FM
HO-68 21 Sep 16:57:46 17:02:49 21° 8° (N) 17:07:52 435.675 MHz FM
Uosat F 21 Sep 17:05:25 17:10:22 59° 256° (WSW) 17:15:21 435.120 FM
Sapphire 21 Sep 17:15:53 17:21:13 53° 357° (N) 17:26:34 437.095 MHz 1200 baud AX-25 AFSK
TMSAT-1 21 Sep 17:24:42 17:28:15 18° 278° (W) 17:31:49 436.925 FM
MaSat-1 21 Sep 17:25:38 17:29:47 48° 234° (SW) 17:33:22 437.345 MHz
PCSat 21 Sep 17:42:56 17:48:17 53° 4° (N) 17:53:38 145.825 MHz
OPAL 21 Sep 18:03:30 18:08:09 31° 96° (E) 18:12:43 ?
Saudisat 1A 21 Sep 18:13:35 18:17:11 25° 127° (SE) 18:20:48 436.775 MHz
AO-7 21 Sep 18:18:39 18:25:51 32° 271° (W) 18:33:06 29.400 - 29.500 MHz
SO-67 21 Sep 18:22:29 18:25:26 26° 58° (ENE) 18:28:24 435.3500 MHz FM
Hamsat 21 Sep 18:23:09 18:27:31 76° 254° (WSW) 18:31:53 145.90 MHz
JAS-2 21 Sep 18:24:02 18:29:12 72° 254° (WSW) 18:34:37 435.800 - 435.900 CW/SSB, 435.910 FM
HO-68 21 Sep 18:42:39 18:48:45 32° 34° (NE) 18:54:52 435.675 MHz FM
Uosat F 21 Sep 18:47:20 18:50:15 15° 279° (W) 18:53:12 435.120 FM
STRAND 1 21 Sep 18:48:54 18:51:10 13° 78° (ENE) 18:53:25 ?
UKube-1 21 Sep 18:51:21 18:52:39 11° 29° (NNE) 18:53:56 145.840 MHz, 145.915 MHz
Sapphire 21 Sep 18:59:51 19:05:18 67° 22° (NNE) 19:10:44 437.095 MHz 1200 baud AX-25 AFSK
MaSat-1 21 Sep 19:04:08 19:05:23 11° 258° (WSW) 19:06:36 437.345 MHz
KITSAT 1 21 Sep 19:11:47 19:17:27 22° 105° (ESE) 19:23:08 435.175 FM
PCSat 21 Sep 19:26:46 19:32:15 79° 29° (NNE) 19:37:42 145.825 MHz
OPAL 21 Sep 19:42:17 19:47:31 74° 298° (WNW) 19:52:39 ?
Saudisat 1A 21 Sep 19:51:51 19:56:15 71° 149° (SSE) 20:00:41 436.775 MHz
SO-67 21 Sep 19:54:55 19:58:18 52° 259° (WSW) 20:01:44 435.3500 MHz FM
Hamsat 21 Sep 20:01:19 20:04:14 17° 276° (W) 20:07:09 145.90 MHz
FUNcube-1 21 Sep 20:03:04 20:05:23 14° 35° (NE) 20:07:44 145.950 - 145.970 MHz USB
Oscar 11 21 Sep 20:05:46 20:08:52 19° 45° (NE) 20:11:59 145.825 FM, Beacon 2401.500 USB
JAS-2 21 Sep 20:11:55 20:15:29 18° 278° (W) 20:19:09 435.800 - 435.900 CW/SSB, 435.910 FM
UKube-1 21 Sep 20:23:57 20:27:42 29° 52° (NE) 20:31:27 145.840 MHz, 145.915 MHz
STRAND 1 21 Sep 20:26:40 20:31:40 48° 100° (E) 20:36:39 ?
HO-68 21 Sep 20:28:31 20:35:36 69° 58° (ENE) 20:42:44 435.675 MHz FM
Sapphire 21 Sep 20:43:27 20:48:49 59° 226° (SW) 20:54:09 437.095 MHz 1200 baud AX-25 AFSK
KITSAT 1 21 Sep 21:03:29 21:11:17 55° 130° (SE) 21:19:07 435.175 FM
PCSat 21 Sep 21:10:21 21:15:29 43° 233° (SW) 21:20:36 145.825 MHz
OPAL 21 Sep 21:21:31 21:25:49 27° 320° (NW) 21:30:04 ?
Saudisat 1A 21 Sep 21:31:32 21:35:58 68° 352° (N) 21:40:24 436.775 MHz
FUNcube-1 21 Sep 21:36:33 21:40:44 38° 57° (ENE) 21:45:00 145.950 - 145.970 MHz USB
Oscar 11 21 Sep 21:40:05 21:44:26 65° 66° (ENE) 21:48:48 145.825 FM, Beacon 2401.500 USB
UKube-1 21 Sep 21:59:17 22:03:38 73° 253° (WSW) 22:08:01 145.840 MHz, 145.915 MHz
STRAND 1 21 Sep 22:06:01 22:10:58 48° 302° (WNW) 22:15:54 ?
HO-68 21 Sep 22:16:57 22:23:46 46° 262° (W) 22:30:38 435.675 MHz FM
Sapphire 21 Sep 22:27:32 22:31:21 20° 248° (WSW) 22:35:09 437.095 MHz 1200 baud AX-25 AFSK
SO-50 21 Sep 22:37:56 22:40:33 15° 117° (ESE) 22:43:12 436.795 FM
PCSat 21 Sep 22:55:12 22:57:40 13° 255° (WSW) 23:00:08 145.825 MHz
KITSAT 1 21 Sep 22:58:23 23:06:32 82° 336° (NNW) 23:14:41 435.175 FM
OPAL 21 Sep 23:00:36 23:03:19 14° 344° (NNW) 23:06:00 ?
Saudisat 1A 21 Sep 23:11:25 23:15:52 77° 16° (NNE) 23:20:19 436.775 MHz
FUNcube-1 21 Sep 23:12:37 23:17:03 55° 259° (W) 23:21:36 145.950 - 145.970 MHz USB
Oscar 11 21 Sep 23:17:12 23:21:00 28° 268° (W) 23:24:49 145.825 FM, Beacon 2401.500 USB
